x

Milford Haven C.b. (03604) Weather Station

12:00 - Wed 10th Feb 2016 All times are GMT.

  • Wind
    10mph
  • Air Temp 46°f
  • Sea Pressure 1000mb
  • Milford Haven C.b.
  • Milford Haven C.b.

More Historic Weather Station data

Upgrade to MSW Pro to gain access to the past 30 days of data for over 8000 Wavebouys and Weather Stations around the globe.

Join Pro

Comparision Forecast

View Surf forecast
   
mer. 02/10 12:00 10
mph
1000mb 46f
9:00 10
mph
998mb 42f
5:00 16 33 mph 996mb 42f
4:00 15 30 mph 995mb 42f
3:00 16 34 mph 995mb 42f
2:00 17 39 mph 995mb 42f
1:00 23 45 mph 994mb 42f
12:00 21 45 mph 993mb 42f
mar. 02/09 11:00 23 41 mph 993mb 41f
10:00 26 45 mph 992mb 43f
9:00 24 44 mph 991mb 43f
8:00 25 46 mph 990mb 44f
7:00 24 52 mph 989mb 42f
6:00 23 41 mph 989mb 40f
4:00 22 40 mph 988mb 42f
3:00 22 40 mph 987mb 43f
2:00 22 40 mph 987mb 44f
1:00 18 33 mph 987mb 44f
12:00 15 30 mph 987mb 46f
11:00 15 34 mph 987mb 46f
10:00 11
mph
986mb 44f
8:00 10
mph
987mb 41f
7:00 11
mph
987mb 41f
6:00 11
mph
988mb 42f
5:00 15
mph
988mb 42f
4:00 17 37 mph 989mb 41f
3:00 22 37 mph 990mb 44f
2:00 22 37 mph 991mb 44f
1:00 21 39 mph 992mb 45f
lun. 02/08 11:00 25 41 mph 993mb 45f
10:00 25 45 mph 993mb 45f
9:00 26 44 mph 993mb 45f
8:00 29 48 mph 993mb 46f
7:00 32 47 mph 993mb 46f
6:00 34 49 mph 992mb 46f
4:00 38 56 mph 990mb 47f
3:00 39 62 mph 988mb 47f
2:00 33 59 mph 987mb 48f
1:00 40 72 mph 984mb 48f
12:00 46 75 mph 983mb 47f
11:00 46 64 mph 982mb 47f
10:00 46 75 mph 980mb 47f
9:00 45 64 mph 979mb 48f
8:00 43 67 mph 978mb 48f
7:00 41 68 mph 978mb 47f
6:00 40 62 mph 978mb 46f
5:00 43 63 mph 978mb 47f
4:00 38 66 mph 979mb 46f
3:00 32 66 mph 980mb 44f
2:00 29 64 mph 980mb 44f
1:00 33 53 mph 981mb 45f
12:00 34 56 mph 981mb 44f
dim. 02/07 11:00 33 51 mph 981mb 47f
10:00 31 53 mph 981mb 48f
9:00 30 47 mph 981mb 49f
8:00 30 60 mph 981mb 47f
7:00 17 47 mph 982mb 49f
6:00 21 47 mph 983mb 50f
5:00 34 49 mph 984mb 47f
4:00 26 41 mph 987mb 46f
3:00 21 39 mph 989mb 45f
2:00 17 31 mph 991mb 45f
1:00 18 36 mph 992mb 46f
12:00 23 36 mph 991mb 47f
10:00 19 34 mph 991mb 46f
9:00 22 40 mph 991mb 45f
8:00 22 40 mph 990mb 44f
7:00 24 47 mph 988mb 44f
6:00 29 43 mph 987mb 44f
5:00 26 41 mph 986mb 44f
4:00 23 54 mph 986mb 44f
3:00 13
mph
986mb 43f
2:00 15 36 mph 986mb 42f
1:00 18 43 mph 986mb 43f
12:00 24 36 mph 985mb 45f
sam. 02/06 11:00 18 38 mph 985mb 45f
10:00 22 44 mph 984mb 45f
9:00 22 37 mph 984mb 47f
8:00 22 36 mph 983mb 47f
7:00 22 31 mph 983mb 47f
6:00 21 31 mph 982mb 47f
5:00 16 33 mph 982mb 47f
4:00 16 46 mph 981mb 48f
2:00 30 44 mph 982mb 49f
1:00 29 45 mph 984mb 49f